ROMMA est une association bénévole à but non lucratif. Votre soutien est indispensable : ADHERER à ROMMA ou FAIRE un DON

Selonnet - (04, Alpes de Haute Provence)

Vallée de la Blanche (1065 m)   Longitude: 06° 18' 53'' E   Latitude: 44° 22' 12'' N Station partenaire n°8
 

Détail journalier du     <<     >>

Température Precipitation Humidité Vent Dir Rafale Dir. rafale Ensol.
Heure (°C) (mm) (%) (km/h) (km/h) (min)
01:00 8.705108E0
02:00 11.80343NNE29E0
03:00 12.00398ENE32ESE0
04:00 11.80383ENE42E0
05:00 11.70396ENE29NNE0
06:00 11.20422ENE21NE0
07:00 11.304110E34E0
08:00 10.70415E32NE0
09:00 11.30362SO31ESE0
10:00 12.50384ENE27ESE0
11:00 13.30425ENE37E30
12:00 13.40439E34ESE20
13:00 13.80418ENE34ESE0
14:00 14.10435E32E0
15:00 14.30405E35SE0
16:00 14.303810E45E0
17:00 15.203610E34E30
18:00 14.50378E32E0
19:00 13.703910E34ESE0
20:00 12.90415NE23NE0
21:00 12.80384ENE21NE0
22:00 9.90481NE19NE0
23:00 12.60352ENE19E0
minuit 12.60405E31ENE0

Graphique du 21-04-2019

 

Serveur OMMA